Weather History for Concordia, KS

Change the Weather History Date:

Sunday, November 28, 2010

  Actual Average Record
Temperature  
Mean Temperature 46 °F 35 °F  
Max Temperature 55 °F 45 °F 69 °F (1904)
Min Temperature 37 °F 25 °F -4 °F (1976)
Degree Days  
Heating Degree Days 19 30  
Month to date heating degree days 638  
Since 1 July heating degree days 1029  
Cooling Degree Days 0 0  
Month to date cooling degree days 0  
Year to date cooling degree days 1348  
Moisture  
Dew Point 26 °F    
Average Humidity 46    
Maximum Humidity 71    
Minimum Humidity 31    
Precipitation  
Precipitation 0.00 in 0.03 in 0.54 in (1997)
Month to date precipitation 1.04  
Year to date precipitation 26.97  
Snow  
Snow 0.00 in 0.10 in 5.10 in (1971)
Month to date snowfall 2.2  
Year to date snowfall 16.1  
Since 1 July snowfall 2.4  
Snow Depth -    
Sea Level Pressure  
Sea Level Pressure 29.61 in    
Wind  
Wind Speed 20 mph (SSE)    
Max Wind Speed 30 mph    
Max Gust Speed 45 mph    
Visibility 10 miles    
Events      
T = Trace of Precipitation, MM = Missing Value Source: NWS Daily Summary

Daily Weather History Graph

Daily Weather History Graph

Search for Another Location

Airport:

Trip Planner

Search our weather history database for the weather conditions in past years. The results will help you decide how hot, cold, wet, or windy it might be!

Date:

Astronomy

Nov. 28, 2010 Rise Set
Actual Time 7:28 AM CST 5:08 PM CST
Civil Twilight 6:59 AM CST 5:37 PM CST
Nautical Twilight 6:26 AM CST 6:10 PM CST
Astronomical Twilight 5:53 AM CST 6:43 PM CST
Moon No Moon Rise 12:38 PM CST (11/28)
Length of Visible Light 10h 38m
Length of Day
9h 39m
Waning Gibbous, 51% of the Moon is Illuminated
Nov 28
Waning Gibbous
Nov 28
Last Quarter
Dec 5
New
Dec 13
First Quarter
Dec 21
Full

Hourly Weather History & Observations

Time (CST) Temp. Windchill Dew Point Humidity Pressure Visibility Wind Dir Wind Speed Gust Speed Precip Events Conditions
12:55 AM 41.0 °F 31.9 °F 21.9 °F 47% 29.82 in 10.0 mi South 19.6 mph - N/A   Clear
1:55 AM 41.0 °F 33.1 °F 21.0 °F 45% 29.81 in 10.0 mi South 15.0 mph - N/A   Clear
2:55 AM 39.9 °F 31.4 °F 21.0 °F 47% 29.80 in 10.0 mi South 16.1 mph 24.2 mph N/A   Clear
3:55 AM 41.0 °F 31.6 °F 21.0 °F 45% 29.76 in 10.0 mi SSE 20.7 mph 27.6 mph N/A   Clear
4:55 AM 39.9 °F 30.5 °F 19.9 °F 45% 29.75 in 10.0 mi South 19.6 mph 28.8 mph N/A   Clear
5:55 AM 37.9 °F 28.9 °F 19.9 °F 48% 29.73 in 10.0 mi South 16.1 mph - N/A   Clear
6:55 AM 37.0 °F 26.7 °F 21.0 °F 52% 29.71 in 10.0 mi SSE 19.6 mph - N/A   Clear
7:55 AM 37.0 °F 26.4 °F 21.0 °F 52% 29.70 in 10.0 mi SSE 20.7 mph 27.6 mph N/A   Clear
8:55 AM 41.0 °F 31.6 °F 21.9 °F 47% 29.69 in 10.0 mi SSE 20.7 mph - N/A   Clear
9:55 AM 44.6 °F 36.9 °F 21.2 °F 39% 29.68 in 10.0 mi South 18.4 mph 25.3 mph N/A   Clear
10:55 AM 48.9 °F - 21.9 °F 35% 29.65 in 10.0 mi South 19.6 mph 33.4 mph N/A   Clear
11:55 AM 51.1 °F - 23.0 °F 33% 29.58 in 10.0 mi SSE 24.2 mph 39.1 mph N/A   Clear
12:55 PM 54.0 °F - 24.1 °F 31% 29.53 in 10.0 mi South 28.8 mph 44.9 mph N/A   Clear
1:55 PM 54.0 °F - 25.0 °F 33% 29.50 in 10.0 mi South 29.9 mph 40.3 mph N/A   Clear
2:55 PM 55.0 °F - 25.0 °F 31% 29.49 in 10.0 mi South 24.2 mph 39.1 mph N/A   Clear
3:55 PM 54.0 °F - 26.1 °F 34% 29.49 in 10.0 mi South 26.5 mph 43.7 mph N/A   Clear
4:55 PM 52.0 °F - 30.0 °F 43% 29.49 in 10.0 mi SSE 23.0 mph 35.7 mph N/A   Clear
5:55 PM 51.1 °F - 32.0 °F 48% 29.51 in 10.0 mi South 17.3 mph 27.6 mph N/A   Clear
6:55 PM 50.0 °F - 32.0 °F 50% 29.52 in 10.0 mi SSE 21.9 mph 33.4 mph N/A   Clear
7:55 PM 48.2 °F - 30.2 °F 50% 29.51 in 10.0 mi SSE 19.6 mph 28.8 mph N/A   Clear
8:55 PM 48.0 °F - 32.0 °F 54% 29.49 in 10.0 mi South 26.5 mph 32.2 mph N/A   Clear
9:55 PM 48.2 °F - 35.6 °F 62% 29.48 in 10.0 mi South 27.6 mph 36.8 mph N/A   Clear
10:55 PM 48.0 °F - 37.0 °F 66% 29.49 in 10.0 mi South 26.5 mph 35.7 mph N/A   Clear
11:55 PM 46.9 °F - 37.9 °F 71% 29.49 in 10.0 mi South 18.4 mph 27.6 mph N/A   Clear